AAL87 EGLL-KORD

Flight info

Callsign AAL87
Flight time N/A
Altitude 38000
Route ULTIB1J ULTIB T420 TNT UL28 PENIL DCT DEJEM DCT OZRAT DCT WETFI DCT REVNU DCT PIKIL/M083F390 NATA JANJO/N0491F400 N714B YBC DCT IGSAS DCT KAPUX DCT HOCKE DCT FNT WYNDE3
Aircraft B772/H-SDE2E3FGHIJ5LORVWXY/LB1D1

Departure

Time 2026-05-04 12:42
Airport London Heathrow Airport (EGLL)

Arrival

Time N/A
Airport Chicago O'Hare International Airport (KORD)
Time Latitude Longitude Altitude Speed Heading
2026-05-04 12:14 51.47164 -0.46187 90 ft 0 kts 56°
2026-05-04 12:22 51.47154 -0.46211 95 ft 4 kts 56°
2026-05-04 12:22 51.47139 -0.46246 92 ft 2 kts 56°
2026-05-04 12:22 51.47125 -0.46272 92 ft 4 kts 23°
2026-05-04 12:22 51.47102 -0.46273 91 ft 4 kts 329°
2026-05-04 12:23 51.47081 -0.46251 93 ft 4 kts 326°
2026-05-04 12:23 51.47074 -0.46242 92 ft 0 kts 326°
2026-05-04 12:27 51.47074 -0.46243 90 ft 1 kts 326°
2026-05-04 12:27 51.47100 -0.46270 94 ft 6 kts 326°
2026-05-04 12:27 51.47138 -0.46311 95 ft 7 kts 327°
2026-05-04 12:27 51.47176 -0.46352 93 ft 7 kts 325°
2026-05-04 12:28 51.47217 -0.46400 95 ft 8 kts 319°
2026-05-04 12:28 51.47239 -0.46475 93 ft 8 kts 275°
2026-05-04 12:28 51.47239 -0.46569 90 ft 9 kts 269°
2026-05-04 12:28 51.47242 -0.46676 90 ft 10 kts 285°
2026-05-04 12:29 51.47284 -0.46738 95 ft 8 kts 343°
2026-05-04 12:29 51.47344 -0.46736 92 ft 9 kts
2026-05-04 12:29 51.47411 -0.46745 93 ft 10 kts 351°
2026-05-04 12:29 51.47480 -0.46726 91 ft 11 kts 30°
2026-05-04 12:30 51.47513 -0.46626 92 ft 11 kts 82°
2026-05-04 12:30 51.47515 -0.46502 92 ft 11 kts 90°
2026-05-04 12:30 51.47515 -0.46371 90 ft 12 kts 89°
2026-05-04 12:30 51.47517 -0.46233 90 ft 13 kts 88°
2026-05-04 12:31 51.47520 -0.46091 93 ft 13 kts 89°
2026-05-04 12:31 51.47519 -0.45944 93 ft 13 kts 91°
2026-05-04 12:31 51.47516 -0.45793 90 ft 14 kts 92°
2026-05-04 12:31 51.47514 -0.45724 91 ft 0 kts 93°
2026-05-04 12:33 51.47514 -0.45719 92 ft 3 kts 93°
2026-05-04 12:33 51.47511 -0.45637 94 ft 11 kts 92°
2026-05-04 12:33 51.47508 -0.45500 94 ft 13 kts 91°
2026-05-04 12:33 51.47509 -0.45349 94 ft 14 kts 89°
2026-05-04 12:34 51.47509 -0.45186 94 ft 15 kts 90°
2026-05-04 12:34 51.47508 -0.45013 94 ft 16 kts 91°
2026-05-04 12:34 51.47503 -0.44831 93 ft 17 kts 92°
2026-05-04 12:34 51.47501 -0.44641 90 ft 17 kts 89°
2026-05-04 12:35 51.47503 -0.44455 93 ft 17 kts 89°
2026-05-04 12:35 51.47503 -0.44266 93 ft 17 kts 90°
2026-05-04 12:35 51.47503 -0.44087 93 ft 12 kts 89°
2026-05-04 12:35 51.47504 -0.43947 93 ft 13 kts 89°
2026-05-04 12:36 51.47502 -0.43829 93 ft 9 kts 99°
2026-05-04 12:36 51.47466 -0.43760 95 ft 7 kts 158°
2026-05-04 12:36 51.47412 -0.43755 91 ft 9 kts 179°
2026-05-04 12:36 51.47345 -0.43754 92 ft 11 kts 179°
2026-05-04 12:37 51.47265 -0.43753 91 ft 12 kts 179°
2026-05-04 12:37 51.47173 -0.43752 90 ft 14 kts 179°
2026-05-04 12:37 51.47072 -0.43752 91 ft 15 kts 179°
2026-05-04 12:37 51.46960 -0.43751 93 ft 17 kts 180°
2026-05-04 12:38 51.46851 -0.43755 94 ft 12 kts 187°
2026-05-04 12:38 51.46769 -0.43802 95 ft 12 kts 202°
2026-05-04 12:38 51.46703 -0.43820 94 ft 6 kts 172°
2026-05-04 12:38 51.46661 -0.43779 94 ft 8 kts 130°
2026-05-04 12:39 51.46648 -0.43692 94 ft 4 kts 83°
2026-05-04 12:39 51.46651 -0.43647 94 ft 4 kts 95°
2026-05-04 12:39 51.46650 -0.43643 95 ft 0 kts 98°
2026-05-04 12:40 51.46641 -0.43613 95 ft 6 kts 124°
2026-05-04 12:40 51.46592 -0.43583 93 ft 10 kts 174°
2026-05-04 12:40 51.46532 -0.43602 94 ft 9 kts 213°
2026-05-04 12:40 51.46501 -0.43689 93 ft 10 kts 257°
2026-05-04 12:41 51.46495 -0.43817 90 ft 20 kts 268°
2026-05-04 12:41 51.46493 -0.44334 91 ft 79 kts 270°
2026-05-04 12:41 51.46488 -0.45571 90 ft 141 kts 268°
2026-05-04 12:41 51.46456 -0.47273 423 ft 152 kts 268°
2026-05-04 12:42 51.46410 -0.48922 933 ft 151 kts 270°
2026-05-04 12:42 51.46537 -0.50655 1318 ft 161 kts 287°
2026-05-04 12:42 51.46970 -0.52307 1979 ft 157 kts 296°
2026-05-04 12:42 51.47425 -0.53896 2475 ft 160 kts 294°
2026-05-04 12:43 51.47921 -0.55583 2721 ft 176 kts 300°
2026-05-04 12:43 51.48543 -0.57399 2904 ft 196 kts 300°
2026-05-04 12:43 51.49225 -0.59438 3093 ft 219 kts 299°
2026-05-04 12:43 51.49969 -0.61712 3258 ft 240 kts 298°
2026-05-04 12:44 51.50758 -0.64155 3579 ft 257 kts 298°
2026-05-04 12:44 51.51705 -0.66610 3960 ft 263 kts 315°
2026-05-04 12:44 51.53284 -0.68080 4523 ft 267 kts 345°
2026-05-04 12:44 51.55124 -0.68471 5052 ft 270 kts 356°
2026-05-04 12:45 51.57021 -0.68641 5622 ft 275 kts 356°
2026-05-04 12:45 51.58933 -0.68801 6313 ft 276 kts 356°
2026-05-04 12:45 51.60872 -0.68956 6869 ft 281 kts 355°
2026-05-04 12:45 51.62809 -0.69111 7450 ft 283 kts 355°
2026-05-04 12:46 51.64782 -0.69269 8087 ft 285 kts 355°
2026-05-04 12:46 51.66772 -0.69431 8678 ft 288 kts 355°
2026-05-04 12:46 51.68778 -0.69598 9252 ft 291 kts 355°
2026-05-04 12:46 51.70811 -0.69770 9832 ft 293 kts 355°
2026-05-04 12:47 51.72861 -0.69943 10292 ft 300 kts 355°
2026-05-04 12:47 51.75017 -0.70129 10453 ft 320 kts 355°
2026-05-04 12:47 51.77314 -0.70329 10622 ft 341 kts 355°
2026-05-04 12:47 51.79756 -0.70540 10912 ft 359 kts 355°
2026-05-04 12:48 51.82249 -0.70754 11479 ft 368 kts 355°
2026-05-04 12:48 51.84828 -0.70975 12222 ft 374 kts 356°
2026-05-04 12:48 51.87429 -0.71197 13163 ft 376 kts 355°
2026-05-04 12:48 51.90057 -0.71423 14041 ft 380 kts 355°
2026-05-04 12:49 51.92715 -0.71653 14784 ft 385 kts 356°
2026-05-04 12:49 51.95408 -0.71886 15545 ft 390 kts 356°
2026-05-04 12:49 51.97210 -0.72042 16048 ft 393 kts 356°
2026-05-04 12:49 51.99957 -0.72281 16832 ft 398 kts 356°
2026-05-04 12:50 52.02737 -0.72522 17616 ft 402 kts 356°
2026-05-04 12:50 52.05549 -0.72767 18388 ft 407 kts 356°
2026-05-04 12:50 52.09311 -0.73109 19332 ft 410 kts 354°
2026-05-04 12:50 52.12141 -0.73884 19925 ft 416 kts 343°
2026-05-04 12:51 52.14867 -0.75480 20596 ft 418 kts 334°
2026-05-04 12:51 52.16612 -0.76961 21070 ft 420 kts 327°
2026-05-04 12:51 52.19051 -0.79487 21757 ft 423 kts 326°
2026-05-04 12:51 52.21558 -0.82067 22438 ft 428 kts 326°
2026-05-04 12:52 52.24108 -0.84623 23122 ft 432 kts 327°
2026-05-04 12:52 52.26689 -0.87184 23745 ft 436 kts 327°
2026-05-04 12:52 52.29292 -0.89758 24352 ft 438 kts 327°
2026-05-04 12:52 52.31897 -0.92337 25010 ft 438 kts 327°
2026-05-04 12:53 52.34510 -0.94930 25585 ft 441 kts 327°
2026-05-04 12:53 52.37111 -0.97518 26006 ft 446 kts 327°
2026-05-04 12:53 52.39775 -1.00175 26437 ft 451 kts 327°
2026-05-04 12:53 52.42463 -1.02859 26881 ft 454 kts 327°
2026-05-04 12:54 52.45167 -1.05560 27380 ft 456 kts 327°
2026-05-04 12:54 52.47888 -1.08283 27848 ft 459 kts 327°
2026-05-04 12:54 52.50618 -1.11028 28258 ft 462 kts 327°
2026-05-04 12:54 52.53361 -1.13812 28648 ft 466 kts 328°
2026-05-04 12:55 52.56127 -1.16626 29005 ft 469 kts 328°
2026-05-04 12:55 52.58913 -1.19451 29366 ft 473 kts 328°
2026-05-04 12:55 52.61688 -1.22259 29759 ft 475 kts 328°
2026-05-04 12:55 52.64504 -1.25111 30155 ft 476 kts 328°
2026-05-04 12:56 52.67325 -1.27974 30490 ft 477 kts 329°
2026-05-04 12:56 52.70158 -1.30855 30740 ft 480 kts 329°
2026-05-04 12:56 52.73009 -1.33757 30946 ft 483 kts 329°
2026-05-04 12:56 52.75876 -1.36675 31243 ft 485 kts 329°
2026-05-04 12:57 52.78748 -1.39604 31532 ft 485 kts 330°
2026-05-04 12:57 52.81627 -1.42543 31804 ft 486 kts 330°
2026-05-04 12:57 52.84504 -1.45483 32076 ft 486 kts 330°
2026-05-04 12:57 52.87340 -1.48387 32406 ft 486 kts 330°
2026-05-04 12:58 52.90209 -1.51331 32724 ft 485 kts 330°
2026-05-04 12:58 52.93071 -1.54274 33065 ft 484 kts 330°
2026-05-04 12:58 52.95927 -1.57214 33385 ft 483 kts 330°
2026-05-04 12:58 52.98779 -1.60154 33710 ft 483 kts 330°
2026-05-04 12:59 53.01628 -1.63096 34039 ft 481 kts 331°
2026-05-04 12:59 53.04465 -1.66029 34333 ft 480 kts 331°